Weather reports worldwide

Advertisment
Schleswig-Jagel, Germany (10037): temperature & dewpoint: 10.09.2019 05:00:00 - 16.09.2019 05:00:00 (CEST)Schleswig-Jagel, Germany (10037): wind speed & gusts: 10.09.2019 05:00:00 - 16.09.2019 05:00:00 (CEST)Schleswig-Jagel, Germany (10037): wind direction: 10.09.2019 05:00:00 - 16.09.2019 05:00:00 (CEST)Schleswig-Jagel, Germany (10037): reduced air pressure: 10.09.2019 05:00:00 - 16.09.2019 05:00:00 (CEST)Schleswig-Jagel, Germany (10037): visibility: 10.09.2019 05:00:00 - 16.09.2019 05:00:00 (CEST)
Date & Time tt [°C] td [°C] ff [km/h] ff [kn] fx [km/h] fx [kn] dd ppp [hPa] vv [km]
16.09.2019 05:00:00 - - - - - - - - -
16.09.2019 04:00:00 9,9 7,5 14 8 - - W 1018,7 13
16.09.2019 03:00:00 8,7 6,5 14 8 - - W 1018,8 11
16.09.2019 02:00:00 9,0 6,5 11 6 - - WSW 1018,6 12
16.09.2019 01:00:00 9,3 6,9 14 8 - - W 1018,9 12
16.09.2019 00:00:00 10,0 7,6 14 8 - - W 1018,7 11
15.09.2019 23:00:00 10,3 7,8 14 8 - - W 1018,5 10
15.09.2019 22:00:00 11,4 8,0 14 8 - - W 1018,4 9
15.09.2019 21:00:00 13,3 9,1 22 12 - - WNW 1018,1 11
15.09.2019 20:00:00 13,9 8,9 18 10 - - WNW 1017,8 14
15.09.2019 19:00:00 14,5 8,4 22 12 - - WNW 1017,5 15
15.09.2019 18:00:00 15,3 9,7 29 16 - - WNW 1017,6 15
15.09.2019 17:00:00 15,8 10,1 29 16 - - WNW 1017,7 15
15.09.2019 16:00:00 16,9 10,8 36 19 58 31 WNW 1017,1 15
15.09.2019 15:00:00 17,3 10,8 43 23 61 33 W 1016,8 17
15.09.2019 14:00:00 16,8 14,4 36 19 - - W 1016,4 12
15.09.2019 13:00:00 16,3 15,1 32 18 - - W 1016,5 13
15.09.2019 12:00:00 16,7 14,4 32 18 - - W 1016,4 11
15.09.2019 11:00:00 15,9 14,5 32 18 - - W 1016,4 4,9
15.09.2019 10:00:00 15,5 13,6 29 16 - - WSW 1016,3 7
15.09.2019 09:00:00 14,5 11,9 29 16 - - WSW 1016,9 10
15.09.2019 08:00:00 13,4 10,2 29 16 - - SW 1017,2 12
15.09.2019 07:00:00 11,6 9,3 18 10 - - SW 1017,8 13
15.09.2019 06:00:00 11,6 9,0 18 10 - - SW 1018,6 14
15.09.2019 05:00:00 12,1 8,9 22 12 - - SSW 1019,8 13
15.09.2019 04:00:00 12,1 9,1 18 10 - - SSW 1020,8 17
15.09.2019 03:00:00 11,7 8,9 18 10 - - SSW 1021,9 19
15.09.2019 02:00:00 11,3 8,8 18 10 - - SSW 1022,9 15
15.09.2019 01:00:00 11,4 9,1 14 8 - - SSW 1024,3 11
15.09.2019 00:00:00 11,0 9,2 11 6 - - SSW 1025,4 10
14.09.2019 23:00:00 11,6 9,2 14 8 - - SSW 1026,1 9
14.09.2019 22:00:00 11,5 9,2 14 8 - - SSW 1027,2 9
14.09.2019 21:00:00 11,4 8,6 11 6 - - SSW 1028,2 15
14.09.2019 20:00:00 12,1 9,0 11 6 - - SSW 1028,9 15
14.09.2019 19:00:00 14,3 8,9 11 6 - - WSW 1029,4 17
14.09.2019 18:00:00 16,3 8,7 22 12 - - WSW 1029,6 18
14.09.2019 17:00:00 16,6 7,6 25 14 - - W 1030,6 22
14.09.2019 16:00:00 17,0 8,7 18 10 - - W 1031,4 21
14.09.2019 15:00:00 17,1 7,3 22 12 - - WSW 1032,2 25
14.09.2019 14:00:00 17,3 7,4 22 12 - - W 1032,7 20
14.09.2019 13:00:00 16,9 6,8 22 12 - - W 1033,5 27
14.09.2019 12:00:00 16,5 8,6 14 8 - - WSW 1033,7 24
14.09.2019 11:00:00 15,1 9,6 11 6 - - SW 1034,0 23
14.09.2019 10:00:00 12,9 9,5 7 4 - - SW 1034,3 20
14.09.2019 09:00:00 10,2 8,8 7 4 - - SSW 1034,2 17
14.09.2019 08:00:00 7,1 6,9 7 4 - - S 1034,2 18
14.09.2019 07:00:00 6,3 6,0 4 2 - - S 1033,9 14
14.09.2019 06:00:00 5,8 5,5 4 2 - - SSW 1033,8 12
14.09.2019 05:00:00 6,7 6,4 7 4 - - SW 1034,1 14
14.09.2019 04:00:00 7,1 6,6 4 2 - - SW 1034,3 13
14.09.2019 03:00:00 7,9 7,3 7 4 - - WSW 1034,3 16
14.09.2019 02:00:00 8,1 7,4 7 4 - - WSW 1034,3 17
14.09.2019 01:00:00 8,3 7,6 7 4 - - WSW 1034,1 16
14.09.2019 00:00:00 8,7 7,7 4 2 - - W 1034,1 14
13.09.2019 23:00:00 9,4 8,0 7 4 - - WSW 1033,8 15
13.09.2019 22:00:00 10,8 8,5 11 6 - - W 1033,3 13
13.09.2019 21:00:00 11,2 8,5 7 4 - - W 1033,2 16
13.09.2019 20:00:00 13,3 8,8 11 6 - - WNW 1032,7 18
13.09.2019 19:00:00 15,2 8,2 14 8 - - WNW 1032,1 20
13.09.2019 18:00:00 16,0 7,1 22 12 - - NW 1031,8 26
13.09.2019 17:00:00 16,5 8,0 29 16 - - NW 1031,5 23
13.09.2019 16:00:00 16,6 7,9 25 14 - - NW 1031,3 28
13.09.2019 15:00:00 16,9 7,9 32 18 - - NNW 1030,9 24
13.09.2019 14:00:00 17,6 7,8 32 18 - - WNW 1030,2 35
13.09.2019 13:00:00 15,8 8,9 29 16 - - NW 1029,5 30
13.09.2019 12:00:00 16,5 7,9 25 14 - - NW 1029,1 30
13.09.2019 11:00:00 16,7 10,4 25 14 - - NW 1028,3 30
13.09.2019 10:00:00 16,0 11,8 25 14 - - NW 1027,0 30
13.09.2019 09:00:00 15,0 12,8 14 8 - - NW 1026,0 25
13.09.2019 08:00:00 14,4 13,0 18 10 - - NNW 1024,9 10
13.09.2019 07:00:00 15,1 13,5 29 16 - - NNW 1023,3 12
13.09.2019 06:00:00 16,7 15,7 29 16 - - W 1021,7 10
13.09.2019 05:00:00 17,5 16,7 29 16 - - W 1021,4 10
13.09.2019 04:00:00 17,0 16,1 25 14 - - WSW 1021,5 11
13.09.2019 03:00:00 16,1 15,1 22 12 - - SW 1021,7 5
13.09.2019 02:00:00 15,9 14,7 22 12 - - SW 1022,4 10
13.09.2019 01:00:00 16,2 13,7 14 8 - - SW 1022,8 16
13.09.2019 00:00:00 16,2 13,3 18 10 - - SW 1023,4 13
12.09.2019 23:00:00 15,7 13,7 18 10 - - SW 1023,9 13
12.09.2019 22:00:00 15,5 13,0 14 8 - - SW 1024,2 12
12.09.2019 21:00:00 15,3 13,1 14 8 - - SW 1024,4 12
12.09.2019 20:00:00 16,0 12,8 14 8 - - WSW 1024,4 13
12.09.2019 19:00:00 17,2 12,7 18 10 - - WSW 1024,4 15
12.09.2019 18:00:00 17,9 11,6 29 16 - - WSW 1024,5 16
12.09.2019 17:00:00 18,6 12,3 29 16 - - W 1024,5 15
12.09.2019 16:00:00 18,0 12,2 25 14 - - W 1024,6 15
12.09.2019 15:00:00 18,7 12,2 29 16 47 25 WSW 1024,4 15
12.09.2019 14:00:00 18,3 12,9 25 14 - - WSW 1024,4 15
12.09.2019 13:00:00 17,4 14,3 29 16 - - SW 1024,1 15
12.09.2019 12:00:00 16,8 14,0 25 14 - - SW 1024,0 14
12.09.2019 11:00:00 16,8 14,9 18 10 - - SW 1023,5 12
12.09.2019 10:00:00 15,6 14,7 22 12 - - SW 1023,0 12
12.09.2019 09:00:00 14,5 13,9 11 6 - - SSW 1022,4 14
12.09.2019 08:00:00 13,0 12,0 14 8 - - SSW 1022,2 14
12.09.2019 07:00:00 12,7 11,7 11 6 - - SSW 1021,8 14
12.09.2019 06:00:00 12,4 11,3 7 4 - - SW 1021,0 12
12.09.2019 05:00:00 11,7 10,9 7 4 - - SW 1020,8 16
12.09.2019 04:00:00 11,6 10,5 11 6 - - SW 1020,4 15
12.09.2019 03:00:00 12,0 11,4 7 4 - - W 1019,9 13
12.09.2019 02:00:00 11,7 11,1 7 4 - - SW 1019,5 12
12.09.2019 01:00:00 12,7 12,2 11 6 - - WSW 1018,7 12
12.09.2019 00:00:00 14,0 13,5 14 8 - - WSW 1018,1 11
11.09.2019 23:00:00 14,9 14,4 18 10 - - SW 1017,3 9
11.09.2019 22:00:00 14,3 13,8 25 14 47 25 SW 1016,8 7
11.09.2019 21:00:00 13,9 13,4 32 18 47 25 SW 1016,2 3,9
11.09.2019 20:00:00 13,4 12,9 25 14 - - SSW 1016,1 6
11.09.2019 19:00:00 13,3 12,7 29 16 - - SSW 1016,2 2,0
11.09.2019 18:00:00 13,3 12,6 29 16 65 35 SW 1016,4 1,4
11.09.2019 17:00:00 14,4 13,0 25 14 - - SW 1016,2 8
11.09.2019 16:00:00 16,1 12,9 32 18 47 25 SW 1016,4 12
11.09.2019 15:00:00 16,2 12,4 32 18 54 29 SW 1016,5 10
11.09.2019 14:00:00 17,9 11,8 29 16 - - SW 1016,6 13
11.09.2019 13:00:00 18,0 12,0 29 16 47 25 SW 1016,8 18
11.09.2019 12:00:00 17,1 10,9 36 19 47 25 SW 1017,0 20
11.09.2019 11:00:00 16,3 12,4 25 14 - - SSW 1017,1 20
11.09.2019 10:00:00 14,3 11,8 22 12 - - S 1017,3 20
11.09.2019 09:00:00 12,3 10,9 14 8 - - SSW 1017,5 20
11.09.2019 08:00:00 10,8 9,9 14 8 - - S 1017,6 20
11.09.2019 07:00:00 10,7 10,0 14 8 - - SSW 1017,5 20
11.09.2019 06:00:00 11,0 10,2 14 8 - - SSW 1017,6 20
11.09.2019 05:00:00 10,3 9,7 11 6 - - S 1017,7 20
11.09.2019 04:00:00 10,4 9,7 11 6 - - SSW 1017,9 15
11.09.2019 03:00:00 11,1 10,2 7 4 - - SSW 1017,8 27
11.09.2019 02:00:00 9,6 9,0 7 4 - - SW 1017,6 17
11.09.2019 01:00:00 10,8 10,0 11 6 - - SW 1017,4 19
11.09.2019 00:00:00 11,3 10,6 11 6 - - WSW 1017,4 21
10.09.2019 23:00:00 12,1 11,2 14 8 - - SW 1016,8 17
10.09.2019 22:00:00 12,1 11,2 11 6 - - W 1016,3 15
10.09.2019 21:00:00 13,7 11,9 14 8 - - W 1015,9 16
10.09.2019 20:00:00 14,9 13,0 18 10 - - W 1015,4 15
10.09.2019 19:00:00 14,5 13,1 22 12 - - W 1015,2 9
10.09.2019 18:00:00 14,8 13,4 18 10 - - W 1014,8 17
10.09.2019 17:00:00 15,0 13,7 22 12 - - NW 1014,2 8
10.09.2019 16:00:00 15,2 13,3 29 16 - - W 1013,8 15
10.09.2019 15:00:00 15,7 12,8 32 18 50 27 WNW 1013,3 12
10.09.2019 14:00:00 16,7 12,7 29 16 - - WNW 1012,9 20
10.09.2019 13:00:00 17,0 11,8 32 18 50 27 W 1012,5 12
10.09.2019 12:00:00 17,2 11,8 29 16 - - WNW 1012,2 12
10.09.2019 11:00:00 15,9 12,7 25 14 - - W 1012,1 12
10.09.2019 10:00:00 15,3 13,1 25 14 - - W 1012,0 12
10.09.2019 09:00:00 14,1 13,3 14 8 - - W 1011,7 12
10.09.2019 08:00:00 12,4 11,9 11 6 - - W 1011,7 9
10.09.2019 07:00:00 11,4 11,0 11 6 - - W 1011,5 10
10.09.2019 06:00:00 11,3 11,0 11 6 - - W 1011,5 10
10.09.2019 05:00:00 11,5 11,2 11 6 - - W 1011,5 10

tt = temperature
td = dewpoint
ff = wind speed
fx = gusts
dd = wind direction
ppp = reduced air pressure
vv = visibility

Next stations